Regional Weather Roundup
Issued by NWS

Home | Current Version | Previous Version | Graphics & Text | Print | Product List | Glossary On
Versions: 1 2 3 4 5 6 7 8 9 10 11 12 13 14 15 16 17 18 19 20 21 22 23 24 25 26 27 28
000
ASUS45 KCYS 230710
RWRWY

WYOMING REGIONAL WEATHER ROUNDUP
NATIONAL WEATHER SERVICE CHEYENNE WY
1200 AM MST THU FEB 23 2017

NOTE:  "FAIR" INDICATES FEW OR NO CLOUDS BELOW 12,000 FEET
WITH NO SIGNIFICANT WEATHER AND/OR OBSTRUCTIONS TO VISIBILITY.

WYZ001-230800-
YELLOWSTONE NATIONAL PARK

CITY           SKY/WX    TMP DP  RH WIND       PRES   REMARKS
LK YELLOWSTONE   N/A     -1  -4  87 CALM      29.72F
W YELLOWSTONE  NOT AVBL

$$
WYZ002>013-054>058-071-098>099-230800-
NORTHERN WYOMING

CITY           SKY/WX    TMP DP  RH WIND       PRES   REMARKS
JACKSON        FAIR      18  16  93 N23       29.66F WCI   0
CODY           CLOUDY    28  24  85 N9        29.79F WCI  19
GREYBULL       FAIR      32  27  81 NW13      29.76F WCI  22
WORLAND        CLOUDY    30  28  92 NE3       29.76F
SHERIDAN       CLOUDY    31  26  82 VRB6      29.87R WCI  25
BUFFALO        CLOUDY    30  26  85 N7        29.82F WCI  23
GILLETTE       CLOUDY    30  26  85 N10       29.83F WCI  21
HULETT         CLOUDY    30  28  93 E8        29.86R WCI  23
NEWCASTLE      FLURRIES  32  30  93 S9        29.84S WCI  24

$$
WYZ014>020-022>026-101>103-230800-
CENTRAL WYOMING

CITY           SKY/WX    TMP DP  RH WIND       PRES   REMARKS
BIG PINEY      CLOUDY    19  15  84 NE6       29.67F WCI  11
PINEDALE       CLOUDY    19  14  79 N6        29.66F WCI  11
DUBOIS         CLOUDY    18  12  79 W3        29.67R
LANDER         LGT SNOW  29  27  92 E15       29.70S FOG     WCI  18
RIVERTON       CLOUDY    30  26  85 NE6       29.73R WCI  24
CASPER         LGT SNOW  30  28  92 MISG      29.75F FOG
DOUGLAS        LGT SNOW  31  30  96 S10       29.78S VSB 1   WCI  22

$$
WYZ021-027>030-104>119-230800-
SOUTHERN WYOMING

CITY           SKY/WX    TMP DP  RH WIND       PRES   REMARKS
EVANSTON       LGT SNOW  20  17  88 SW15      29.66S VSB 1   WCI   6
FORT BRIDGER   LGT SNOW  24  24 100 W12       29.68F WCI  13
ROCK SPRINGS   LGT SNOW  24  22  91 N7        29.62F FOG     WCI  16
DIXON            N/A     21  20  94 CALM      29.58F
RAWLINS        LGT SNOW  26  23  88 NE18G31   29.61F VSB 1   WCI  13
SARATOGA       CLOUDY    27  27 100 N8        29.59F WCI  18
LARAMIE        CLOUDY    27  21  78 SE20G29   29.63F WCI  13
CHEYENNE       CLOUDY    29  28  96 E12       29.72F WCI  19
TORRINGTON     LGT SNOW  32  31  96 NE18      29.77F VSB 1   WCI  20
PINE BLUFFS    PTSUNNY   30  30 100 NW7       29.76S WCI  23

$$




USA.gov is the U.S. government's official web portal to all federal, state and local government web resources and services.